Location: Chevoux
(46.3801°N, 4.9476°E)
Time: 22:49:53
(UTC+00:00)

H-2A R/B - Pass Details

Date: 28 January 2021
Orbit: 734 x 836 km, 98.2° (Epoch: 04 March)

Event Time Altitude Azimuth Distance (km) Brightness Sun altitude
Rises 19:00:17 0° 185° (S) 3,195 5.3 -24.4°
Reaches altitude 10° 19:02:40 10° 193° (SSW) 2,289 4.6 -24.8°
Maximum altitude 19:07:25 41° 263° (W) 1,125 3.3 -25.6°
Drops below altitude 10° 19:12:20 10° 333° (NNW) 2,368 4.8 -26.4°
Sets 19:14:51 0° 341° (NNW) 3,319 5.6 -26.9°
